Lake Weatherford Weather Center

Moon Phase Calendar



Lake Weatherford Water Level
Online Cameras

 


      

Current Conditions in Hudson Oaks
10/20/2020 12:58:15 PM

82°F
Feels Like 85
Clouds
Humidity
68%
Pressure
30.03"
Wind
9 mph (SW)
Dew Point
70°F
UV Index
5/10 (Moderate)
Visibility
6 mi

Hourly Forecast

Date & Time Tue, Oct 20
12:00 PM
Tue, Oct 20
1:00 PM
Tue, Oct 20
2:00 PM
Tue, Oct 20
3:00 PM
Tue, Oct 20
4:00 PM
Tue, Oct 20
5:00 PM
Tue, Oct 20
6:00 PM
Tue, Oct 20
7:00 PM
Tue, Oct 20
8:00 PM
Tue, Oct 20
9:00 PM
Tue, Oct 20
10:00 PM
Tue, Oct 20
11:00 PM
Wed, Oct 21
12:00 AM
Wed, Oct 21
1:00 AM
Wed, Oct 21
2:00 AM
Wed, Oct 21
3:00 AM
Wed, Oct 21
4:00 AM
Wed, Oct 21
5:00 AM
Wed, Oct 21
6:00 AM
Wed, Oct 21
7:00 AM
Wed, Oct 21
8:00 AM
Wed, Oct 21
9:00 AM
Wed, Oct 21
10:00 AM
Wed, Oct 21
11:00 AM
Wed, Oct 21
12:00 PM
Wed, Oct 21
1:00 PM
Wed, Oct 21
2:00 PM
Wed, Oct 21
3:00 PM
Wed, Oct 21
4:00 PM
Wed, Oct 21
5:00 PM
Wed, Oct 21
6:00 PM
Wed, Oct 21
7:00 PM
Wed, Oct 21
8:00 PM
Wed, Oct 21
9:00 PM
Wed, Oct 21
10:00 PM
Wed, Oct 21
11:00 PM
Thu, Oct 22
12:00 AM
Thu, Oct 22
1:00 AM
Thu, Oct 22
2:00 AM
Thu, Oct 22
3:00 AM
Thu, Oct 22
4:00 AM
Thu, Oct 22
5:00 AM
Thu, Oct 22
6:00 AM
Thu, Oct 22
7:00 AM
Thu, Oct 22
8:00 AM
Thu, Oct 22
9:00 AM
Thu, Oct 22
10:00 AM
Thu, Oct 22
11:00 AM
Condition
Clouds

Clouds

Clouds

Clouds

Clouds

Clouds

Clouds

Clouds

Clear

Clear

Clear

Clear

Clear

Clear

Clear

Clear

Clear

Clear

Clear

Clear

Clouds

Clouds

Clouds

Clouds

Clouds

Clouds

Clouds

Clouds

Clouds

Clouds

Clouds

Clouds

Clear

Clear

Clear

Clear

Clear

Clear

Clear

Clear

Clear

Clear

Clear

Clear

Clear

Clear

Clear

Clear
Temperature 82°F80°F80°F82°F81°F80°F78°F74°F73°F72°F71°F71°F70°F69°F69°F68°F68°F67°F67°F67°F67°F69°F71°F74°F75°F75°F76°F78°F80°F80°F79°F74°F73°F72°F72°F71°F71°F70°F69°F69°F68°F68°F67°F67°F67°F70°F73°F76°F
Feels Like 83°F80°F79°F80°F78°F77°F76°F74°F73°F72°F71°F69°F69°F69°F67°F67°F66°F67°F67°F67°F68°F69°F70°F72°F73°F73°F74°F76°F77°F77°F77°F75°F73°F71°F70°F70°F70°F69°F68°F68°F67°F66°F66°F66°F66°F67°F70°F72°F
Cloudiness 88%88%97%76%68%65%61%51%0%0%1%1%1%1%0%0%0%0%0%5%58%73%79%75%69%69%88%65%46%35%28%23%0%0%0%0%0%0%0%0%0%0%0%0%5%8%7%5%
Visibility 6 mi6 mi6 mi6 mi6 mi6 mi6 mi6 mi6 mi6 mi6 mi6 mi6 mi6 mi6 mi6 mi6 mi6 mi6 mi6 mi5 mi6 mi6 mi6 mi6 mi6 mi6 mi6 mi6 mi6 mi6 mi6 mi6 mi6 mi6 mi6 mi6 mi6 mi6 mi6 mi6 mi6 mi6 mi6 mi6 mi6 mi6 mi6 mi
Precipitation 67%67%0%0%0%0%0%0%0%0%0%0%0%0%0%0%0%0%0%0%0%0%0%0%0%0%0%0%0%0%0%0%0%0%0%0%0%0%0%0%0%0%0%0%0%0%0%0%
Humidity 68%70%66%61%63%66%69%76%77%79%82%80%81%83%85%87%89%94%96%97%97%91%85%79%76%75%71%66%62%62%62%68%69%70%75%81%85%87%89%90%92%92%94%95%95%86%75%68%
Dew Point 70°F69°F68°F67°F67°F68°F67°F66°F66°F66°F65°F64°F64°F64°F64°F64°F65°F65°F66°F66°F67°F67°F67°F67°F67°F67°F66°F66°F66°F66°F65°F63°F62°F62°F64°F65°F66°F66°F66°F66°F66°F66°F66°F66°F66°F66°F65°F65°F
Pressure 30.03"30.03"29.97"29.91"29.88"29.85"29.85"29.88"29.91"29.91"29.94"29.94"29.97"29.97"29.97"29.97"29.97"29.97"30"30"30.03"30.03"30.06"30.06"30.03"30.03"30"29.97"29.94"29.91"29.91"29.91"29.94"29.97"29.97"29.97"29.97"29.97"29.97"29.97"29.97"29.94"29.94"29.97"29.97"29.97"29.97"29.97"
Wind Speed 11.4 mph13.1 mph13.6 mph14 mph16.3 mph15.9 mph14.3 mph10.6 mph9.7 mph9.2 mph9.8 mph11.7 mph10.7 mph10.4 mph10.9 mph11.9 mph11.9 mph10.6 mph9.5 mph8.3 mph9.4 mph12.3 mph12.4 mph14 mph14.8 mph15.1 mph14.9 mph14.8 mph14.3 mph14.6 mph12 mph7.6 mph7.4 mph9.6 mph11.9 mph12.5 mph12.5 mph11.7 mph11.5 mph11.1 mph11.8 mph12.4 mph11.8 mph11.3 mph11.2 mph14.7 mph16.4 mph16.6 mph
Wind
Direction
187°
S
189°
S
187°
S
176°
S
167°
SSE
164°
SSE
163°
SSE
162°
SSE
168°
SSE
162°
SSE
150°
SSE
166°
SSE
169°
S
168°
SSE
168°
SSE
164°
SSE
165°
SSE
173°
S
178°
S
175°
S
169°
S
166°
SSE
166°
SSE
174°
S
178°
S
178°
S
176°
S
171°
S
167°
SSE
163°
SSE
167°
SSE
164°
SSE
157°
SSE
149°
SSE
160°
SSE
163°
SSE
172°
S
177°
S
180°
S
178°
S
175°
S
178°
S
180°
S
180°
S
174°
S
180°
S
180°
S
179°
S

Daily Forecast

Date High Low Precip. Humidity
Today
Oct 20

Rain
82 °F
59 °F
79%
70%
Wednesday
Oct 21

Clouds
80 °F
67 °F
0%
75%
Thursday
Oct 22

Clear
84 °F
67 °F
0%
58%
Friday
Oct 23

Clouds
74 °F
53 °F
44%
55%
Saturday
Oct 24

Clouds
67 °F
48 °F
0%
50%
Sunday
Oct 25

Rain
85 °F
56 °F
68%
57%
Monday
Oct 26

Rain
50 °F
34 °F
99%
77%
Tuesday
Oct 27

Rain
33 °F
31 °F
100%
97%
Wednesday
Oct 28

Clear
44 °F
28 °F
0%
80%
Thursday
Oct 29

Clear
56 °F
35 °F
0%
50%
Friday
Oct 30

Clear
66 °F
43 °F
0%
45%
Saturday
Oct 31

Clear
69 °F
48 °F
0%
45%
Sunday
Nov 1

Clear
70 °F
51 °F
0%
45%
Monday
Nov 2

Clear
69 °F
51 °F
0%
49%
Tuesday
Nov 3

Clear
72 °F
49 °F
0%
45%
Wednesday
Nov 4

Clear
72 °F
51 °F
0%
39%


Temperature 8-14 Day Outlook



Precipitation 8-14 Day Outlook




Quick Links
Lake Weatherford News
Lake Weatherford Photos
Lake Weatherford Videos




About Us
Contact Us
Site Map
Search Site
Advertise With Us
   
Weatherford.LakesOnline.com
THE LAKE WEATHERFORD WEBSITE

Copyright 2020, Lakes Online
Privacy    |    Legal